Regional Weather Roundup
Issued by NWS Charleston, SC

Current Version | Previous Version | Graphics & Text | Print | Product List | Glossary On
Versions: 1 2 3 4 5 6 7 8 9 10 11 12 13 14 15 16 17 18 19 20 21 22 23 24 25 26 27 28 29 30 31 32 33 34 35 36 37 38 39 40 41 42 43 44 45 46 47 48 49 50
000 ASUS42 KCHS 230225 RWRCHS REGIONAL WEATHER ROUNDUP NATIONAL WEATHER SERVICE CHARLESTON SC 1000 PM EDT WED OCT 22 2014 NOTE: "FAIR" INDICATES FEW OR NO CLOUDS BELOW 12,000 FEET WITH NO SIGNIFICANT WEATHER AND/OR OBSTRUCTIONS TO VISIBILITY. NOT ALL STATIONS ARE QUALITY CONTROLLED BY THE NATIONAL WEATHER SERVICE. USE DATA WITH CAUTION...ESPECIALLY DEWPOINT OBSERVATIONS. SCZ027-030-031-034>040-042>050-230300- ...SOUTH CAROLINA... CITY SKY/WX TMP DP RH WIND PRES REMARKS N CHARLESTON CLEAR 56 45 66 NW6 30.06R WATERFRONT PRK NOT AVBL FORT JOHNSON NOT AVBL JOHNS ISLAND CLEAR 54 48 82 CALM 30.06S PINOPOLIS NOT AVBL MONCKS CORNER FAIR 52 50 93 CALM 30.05S SUMMERVILLE FAIR 50 50 100 CALM 30.07S BEAUFORT MCAS CLEAR 54 48 80 NW3 30.07R BEAUFORT ARPT FAIR 59 50 72 NW7 30.06S HILTON HEAD IS NOT AVBL GEORGETOWN NOT AVBL WALTERBORO NOT AVBL ORANGEBURG CLEAR 50 46 86 CALM 30.08R BARNWELL FAIR 48 45 87 CALM 30.08S AIKEN FAIR 50 45 81 CALM 30.12R MANNING FAIR 50 48 93 CALM 30.06R KINGSTREE NOT AVBL COLUMBIA CLEAR 58 42 55 N7 30.09R SUMTER CLEAR 56 46 67 N12 30.06R FLORENCE CLEAR 57 41 55 N10 30.06R MYRTLE BEACH CLEAR 55 45 67 NW8 30.03R N MYRTLE BEACH CLEAR 54 48 80 CALM 30.03R $$ GAZ063-065-086>088-099>101-113>116-118-119-134-136>141-150-230300- ...GEORGIA... CITY SKY/WX TMP DP RH WIND PRES REMARKS SAVANNAH ARPT CLEAR 57 49 74 CALM 30.08R HUNTER AAF CLEAR 56 47 71 N5 30.05R FORT STEWART CLEAR 50 46 86 CALM 30.06R STATESBORO NOT AVBL SYLVANIA CLEAR 53 51 93 CALM 30.09R CLAXTON FAIR 50 50 100 CALM 30.09R THOMSON CLEAR 47 47 100 CALM 30.14R AUGUSTA-BUSH CLEAR 48 42 80 CALM 30.08R AUGUSTA-DANIEL CLEAR 59 42 53 N5 30.09R SWAINSBORO FAIR 50 45 81 MISG 30.09R VIDALIA CLEAR 54 45 71 N3 30.09R ALMA CLEAR 48 45 89 CALM 30.06R WAYCROSS CLEAR 55 52 89 CALM 30.07R JESUP FAIR 54 52 94 CALM 30.07R BRUNSWICK CLEAR 52 50 93 CALM 30.07S SAINT SIMONS CLEAR 58 48 69 CALM 30.06R $$ SCZ027-028-034-036>038-045-046-048>050-GAZ119-141-230300- ...LAKE AND SUPPLEMENTAL COASTAL OBSERVATIONS... STATION/POSITION TIME TEMP WIND PRES WAVE SWELL AIR SEA DIR/SP/G HT/PER HT/PER/DIR (UTC) (F) (DEG/KT/KT) (MB) (FT/S) (FT/S/D) UPR LAKE MARION NOT AVBL WINYAH BAY 0200 55 300/ 3 1017.0S LAKE MURRAY 0100 58 360/ 5/ 10 1018.3R ACE BASIN NERRS 0200 54 CALM 1018.0S FORT PULASKI 0200 63 340/ 7/ 8 1018.3R SAPELO ISLAND NOT AVBL $$ ANZ835-935-AMZ111-154-330-350-352-354-374-450-454-472-230300- ...C-MAN AND BUOY OBSERVATIONS... STATION/POSITION TIME TEMP WIND PRES WAVE SWELL AIR SEA DIR/SP/G HT/PER HT/PER/DIR (UTC) (F) (DEG/KT/KT) (MB) (FT/S) (FT/S/D) FOLLY BEACH CMAN 0200 59 300/ 3/ 4 1018.3R BUOY 41004 0200 67 78 330/ 14/ 17 1016.8R 4/ 6 2/10 BUOY 41008 0200 68 76 360/ 10/ 14 1017.3R 3/ 6 2/ 60/ 6 5E ST. MARYS GA 0200 77 N/A 3/ 6 FRYING PAN BUOY 0200 66 75 320/ 16/ 19 1016.7R 3/ 5 2/130/10 BUOY 41025 0200 61 310/ 25/ 31 1011.8R 6/ 6 2/100/10 CAPE LOOKOUT NC 0200 60 330/ 21/ 24 1014.7R BUOY 41002 0103 70 78 320/ 17/ 21 1014.2 7/ 7 2/ 90/11 BUOY 41010 0200 75 81 20/ 14/ 17 1015.5R 4/ 6 2/100/ 9 BUOY 41012 NOT AVBL ST AUGUSTINE FL 0200 69 20/ 13/ 15 1017.9R CAPERS NEARSHORE NOT AVBL FRIPP NEARSHORE NOT AVBL $$

USA.gov is the U.S. government's official web portal to all federal, state and local government web resources and services.